RH
15 18 25 34 34 36 32 34 32 33 37 40 46 45 50 53 54 50 52 51 45 47 52 56 58 59 61 55 51 46 52 54 51 50 59 60 59 68 71 69 66 62 57 48
19 16 21 32 29 31 34 31 30 32 37 37 42 49 49 47 50 47 50 53 51 48 50 50 52 59 59 54 52 47 50 49 46 51 55 60 64 70 75 73 68 59 57 48
17 18 19 22 21 27 29 29 30 30 33 38 45 54 49 43 48 49 51 53 55 52 48 50 50 51 52 55 51 49 48 48 46 53 54 56 62 66 68 71 70 74 56 48
13 13 16 19 20 23 30 32 25 28 32 47 28 34 45 44 42 49 51 50 54 54 49 48 48 49 50 52 54 49 48 49 50 50 56 59 64 66 69 74 78 73 67 44
8 8 8 13 19 23 28 24 22 24 25 25 34 23 45 40 45 47 48 53 52 54 51 47 46 48 50 51 52 49 48 47 50 52 55 59 57 58 62 64 70 71 56 40
7 8 9 9 13 17 20 17 23 26 27 25 34 23 27 33 34 40 46 48 49 50 53 50 48 45 48 50 48 47 45 44 48 52 53 56 56 53 62 61 71 73 67 42
9 8 8 8 10 14 17 18 29 26 23 28 25 17 17 27 30 34 42 43 47 48 50 52 52 48 46 48 48 46 44 43 43 47 50 53 54 57 56 53 66 70 66 46
11 12 11 8 8 19 17 21 26 27 20 19 18 22 21 28 31 32 36 41 42 48 48 51 52 53 52 46 44 44 45 41 46 44 43 46 51 56 55 51 62 67 57 46
12 12 12 10 10 9 17 23 25 24 21 18 17 18 22 32 37 32 33 34 35 42 48 48 51 52 50 46 43 46 49 46 44 45 44 43 43 47 54 48 52 60 59 48
12 14 16 12 9 8 10 17 21 21 24 24 18 18 26 33 36 33 36 33 38 40 43 48 48 49 49 50 46 45 46 46 45 44 41 43 44 44 47 46 49 56 51 47
13 13 14 15 11 9 9 10 16 21 20 20 20 22 26 30 29 34 39 38 37 32 36 39 41 43 45 47 47 46 47 45 44 42 43 42 41 43 44 48 48 53 49 48
15 14 14 15 15 12 12 14 15 19 21 20 21 21 28 25 24 31 35 40 40 39 36 37 38 37 39 42 43 44 46 45 42 39 39 40 44 44 49 48 46 50 53 50
24 15 16 15 13 15 13 13 15 16 16 18 19 19 28 25 23 26 31 36 37 37 38 40 40 37 37 38 40 39 41 42 43 42 40 41 43 45 46 45 40 41 47 50
22 20 16 14 15 16 15 14 12 13 15 14 15 21 29 27 24 22 28 31 36 36 36 35 36 40 39 36 33 34 38 40 41 41 39 38 37 37 40 41 44 47 52 56
23 28 23 19 18 19 19 16 14 15 14 13 16 17 30 30 25 22 26 26 31 33 36 34 34 38 40 39 34 34 36 37 39 38 40 36 36 41 48 52 57 61 63 65
32 27 28 33 25 20 19 16 16 15 15 14 16 20 25 31 26 25 27 27 28 31 30 36 37 37 39 40 36 36 37 35 36 34 37 41 44 46 48 52 58 62 68 83
38 36 39 38 33 23 22 20 18 15 15 16 18 22 29 37 32 27 29 32 29 29 32 34 37 36 41 46 46 37 39 40 38 39 38 40 41 44 50 57 61 64 68 67
35 35 37 59 68 40 22 32 22 19 16 22 24 35 43 35 35 30 26 29 31 30 31 35 38 38 37 39 52 46 41 43 40 40 41 42 46 50 54 62 70 74 77 73
36 37 35 41 45 49 38 31 28 30 33 35 30 42 45 29 34 39 31 29 29 34 33 35 39 38 38 36 41 42 48 43 44 43 44 49 53 56 67 84 93 92 73 70
48 46 35 35 40 50 45 55 48 37 33 50 54 49 41 34 34 54 50 40 33 35 37 36 41 40 41 39 41 44 50 51 48 47 46 50 58 63 72 81 69 54 70 65
61 63 54 31 31 33 53 44 52 60 64 56 51 49 46 48 41 41 38 36 37 35 39 42 44 43 42 44 45 47 49 51 49 53 57 60 63 64 69 60 57 51 62 57
68 69 66 51 40 43 48 52 49 66 59 59 59 57 51 45 42 40 38 37 44 42 41 44 42 42 48 50 50 54 53 51 54 58 61 64 66 67 62 59 57 52 53 62
57 67 57 56 70 70 67 63 61 51 54 50 52 49 48 47 49 47 42 39 44 51 47 45 45 42 39 46 52 55 55 57 61 66 70 74 69 64 55 47 53 54 54 65
63 63 56 53 68 79 49 54 50 45 41 41 43 42 41 37 42 46 42 41 42 51 52 44 44 43 42 43 46 44 48 51 58 66 68 65 63 59 56 53 54 55 55 65
57 55 61 60 61 59 48 49 50 46 41 41 42 43 41 41 41 41 41 41 43 51 52 51 48 46 44 43 47 47 48 50 49 54 57 60 55 54 52 53 57 56 56 68
58 54 65 64 65 68 59 50 42 39 38 39 41 41 39 39 38 37 37 40 43 48 56 51 51 50 46 44 46 47 52 55 59 58 55 53 55 52 58 60 64 61 66 72